Weather History for Truckee-Tahoe, CA

Change the Weather History Date:

Wednesday, October 1, 2014

  Actual Average Record
Temperature  
Mean Temperature 45 °F -  
Max Temperature 64 °F 70 °F 84 °F (1987)
Min Temperature 26 °F 33 °F 15 °F (1971)
Degree Days  
Heating Degree Days 20    
Moisture  
Dew Point 29 °F    
Average Humidity 69    
Maximum Humidity 100    
Minimum Humidity 24    
Precipitation  
Precipitation 0.00 in - - ()
Sea Level Pressure  
Sea Level Pressure 30.16 in    
Wind  
Wind Speed 2 mph (SSE)    
Max Wind Speed 12 mph    
Max Gust Speed 16 mph    
Visibility 9 miles    
Events Fog    
Averages and records for this station are not official NWS values.
T = Trace of Precipitation, MM = Missing Value Source: NWS Daily Summary

Daily Weather History Graph

Daily Weather History Graph

Search for Another Location

Airport:

Trip Planner

Search our weather history database for the weather conditions in past years. The results will help you decide how hot, cold, wet, or windy it might be!

Date:

Astronomy

Oct. 01, 2014 Rise Set
Actual Time 6:56 AM PDT 6:42 PM PDT
Civil Twilight 6:29 AM PDT 7:09 PM PDT
Nautical Twilight 5:58 AM PDT 7:40 PM PDT
Astronomical Twilight 5:27 AM PDT 8:11 PM PDT
Moon 2:00 PM PDT (10/1) No Moon Set
Length of Visible Light 12h 39m
Length of Day
11h 46m
Waxing Crescent, 50% of the Moon is Illuminated
Oct 1
Waxing Crescent
Oct 1
First Quarter
Oct 8
Full
Oct 15
Last Quarter
Oct 23
New

Hourly Weather History & Observations

Time (PDT) Temp. Windchill Dew Point Humidity Pressure Visibility Wind Dir Wind Speed Gust Speed Precip Events Conditions
12:35 AM 33.8 °F - 30.2 °F 87% 30.11 in 10.0 mi Calm Calm - N/A   Clear
12:55 AM 37.4 °F - 37.4 °F 100% 30.13 in 0.8 mi Calm Calm - N/A   Mist
1:15 AM 32.0 °F - 28.4 °F 87% 30.11 in 10.0 mi Calm Calm - N/A   Clear
1:35 AM 33.8 °F - 30.2 °F 87% 30.12 in 10.0 mi Calm Calm - N/A   Clear
1:55 AM 32.0 °F - 30.2 °F 93% 30.13 in 10.0 mi Calm Calm - N/A   Clear
2:15 AM 33.8 °F 29.6 °F 28.4 °F 81% 30.13 in 10.0 mi South 4.6 mph - N/A   Clear
2:35 AM 33.8 °F - 30.2 °F 87% 30.13 in 10.0 mi Calm Calm - N/A   Clear
2:55 AM 32.0 °F - 28.4 °F 87% 30.13 in 10.0 mi Calm Calm - N/A   Clear
3:15 AM 30.2 °F 25.4 °F 26.6 °F 86% 30.13 in 10.0 mi SSE 4.6 mph - N/A   Clear
3:35 AM 30.2 °F - 28.4 °F 93% 30.13 in 10.0 mi Calm Calm - N/A   Clear
3:55 AM 30.2 °F - 28.4 °F 93% 30.13 in 10.0 mi Calm Calm - N/A   Clear
4:15 AM 30.2 °F - 28.4 °F 93% 30.14 in 10.0 mi Calm Calm - N/A   Clear
4:35 AM 28.4 °F - 26.6 °F 93% 30.14 in 10.0 mi Calm Calm - N/A   Clear
4:55 AM 30.2 °F 26.7 °F 28.4 °F 93% 30.14 in 10.0 mi SSW 3.5 mph - N/A   Clear
5:35 AM 32.0 °F - 32.0 °F 100% 30.11 in 0.2 mi Calm Calm - N/A Fog Fog
5:55 AM 28.4 °F - 26.6 °F 93% 30.14 in 10.0 mi Calm Calm - N/A   Clear
6:15 AM 28.4 °F - 26.6 °F 93% 30.15 in 10.0 mi Calm Calm - N/A   Clear
6:35 AM 32.0 °F - 32.0 °F 100% 30.10 in 0.2 mi Calm Calm - N/A Fog Fog
6:55 AM 26.6 °F - 24.8 °F 93% 30.17 in 10.0 mi Calm Calm - N/A   Clear
7:45 AM 32.0 °F - 32.0 °F 100% 30.13 in 0.1 mi Calm Calm - N/A Fog Fog
7:55 AM 28.4 °F - 28.4 °F 100% 30.19 in 10.0 mi Calm Calm - N/A   Clear
8:55 AM 39.2 °F - 32.0 °F 75% 30.19 in 10.0 mi Calm Calm - N/A   Clear
9:55 AM 46.4 °F 43.5 °F 30.2 °F 53% 30.20 in 10.0 mi NNE 5.8 mph - N/A   Clear
10:45 AM 53.6 °F - 42.8 °F 67% 30.10 in 10.0 mi Calm Calm - N/A   Mostly Cloudy
10:55 AM 51.8 °F - 28.4 °F 41% 30.19 in 10.0 mi North 6.9 mph - N/A   Clear
11:50 AM 55.4 °F - 28.4 °F 36% 30.18 in 10.0 mi North 9.2 mph - N/A   Clear
12:45 PM 62.6 °F - 35.6 °F 37% 30.06 in 10.0 mi NW 6.9 mph - N/A   Scattered Clouds
12:48 PM 57.2 °F - 26.6 °F 31% 30.17 in 10.0 mi Calm Calm - N/A   Clear
1:45 PM 60.8 °F - 26.6 °F 27% 30.16 in 10.0 mi SE 6.9 mph - N/A   Clear
2:45 PM 62.6 °F - 26.6 °F 26% 30.15 in 10.0 mi SSE 10.4 mph - N/A   Clear
3:45 PM 62.6 °F - 24.8 °F 24% 30.15 in 10.0 mi SSE 8.1 mph - N/A   Clear
3:55 PM 64.4 °F - 35.6 °F 34% 30.02 in 10.0 mi WSW 11.5 mph 16.1 mph N/A   Mostly Cloudy
4:45 PM 62.6 °F - 24.8 °F 24% 30.16 in 10.0 mi South 9.2 mph - N/A   Clear
4:50 PM 64.4 °F - 37.4 °F 37% 30.02 in 10.0 mi WSW 9.2 mph - N/A   Mostly Cloudy
5:45 PM 60.8 °F - 24.8 °F 25% 30.17 in 10.0 mi SSE 6.9 mph - N/A   Clear
6:15 PM 57.2 °F - 26.6 °F 31% 30.17 in 10.0 mi SSE 4.6 mph - N/A   Clear
6:35 PM 53.6 °F - 26.6 °F 35% 30.18 in 10.0 mi NE 4.6 mph - N/A   Clear
6:55 PM 51.8 °F - 26.6 °F 38% 30.19 in 10.0 mi Calm Calm - N/A   Clear
7:15 PM 51.8 °F - 26.6 °F 38% 30.20 in 10.0 mi Calm Calm - N/A   Clear
7:35 PM 48.2 °F - 26.6 °F 43% 30.20 in 10.0 mi Calm Calm - N/A   Clear
7:55 PM 41.0 °F - 26.6 °F 57% 30.21 in 10.0 mi Calm Calm - N/A   Clear
8:15 PM 41.0 °F - 28.4 °F 61% 30.22 in 10.0 mi Calm Calm - N/A   Clear
8:35 PM 51.8 °F - 41.0 °F 67% 30.07 in 10.0 mi NE 3.5 mph - N/A   Overcast
8:55 PM 37.4 °F - 28.4 °F 70% 30.23 in 10.0 mi Calm Calm - N/A   Clear
9:15 PM 35.6 °F 32.8 °F 28.4 °F 75% 30.24 in 10.0 mi South 3.5 mph - N/A   Clear
9:35 PM 33.8 °F - 28.4 °F 81% 30.25 in 10.0 mi Calm Calm - N/A   Clear
9:55 PM 35.6 °F - 28.4 °F 75% 30.25 in 10.0 mi Calm Calm - N/A   Clear
10:15 PM 35.6 °F - 28.4 °F 75% 30.26 in 10.0 mi Calm Calm - N/A   Clear
10:35 PM 33.8 °F - 28.4 °F 81% 30.26 in 10.0 mi Calm Calm - N/A   Clear
10:55 PM 33.8 °F - 28.4 °F 81% 30.26 in 10.0 mi Calm Calm - N/A   Clear
11:15 PM 32.0 °F - 26.6 °F 80% 30.26 in 10.0 mi Calm Calm - N/A   Clear
11:35 PM 32.0 °F - 26.6 °F 80% 30.26 in 10.0 mi Calm Calm - N/A   Clear
11:55 PM 32.0 °F - 28.4 °F 87% 30.26 in 10.0 mi Calm Calm - N/A   Clear